Showing default

HISPASAT 30W-6, 43228

Orbit data source: Space-Track

HISPASAT 30W-6, 43228 is a payload satellite owned by Hispasat (ES) in GEO that was launched on Tue, 06 Mar 2018 UTC via an FALCON 9 launch vehicle from the Air Force Eastern Test Range (AFETR). Payload-class satellites include a variety of spacecraft equipped with specific instruments for various scientific and technological missions. These include communications satellites like Starlink; space stations such as the ISS; scientific satellites like the Hubble; Earth observation satellites from companies like Planet Labs, Umbra, and HawkEye 360; GPS; miniature CubeSats for education and research; and military/defense satellites.

Not visible in the next 10 days
Identifier
43228, 2018-023A
Orbit
GEO
Country
Flag of ESES / SPN
Related business
Manufacturer
Maxar SSL
Mission
Operational Commercial Communications
Bus & Motor
LS-1300, R-4D
Mass
6,092 kg wet, 2,634 kg dry
Launch date (UTC)
2018-03-06 (8 years ago)
Launch vehicle
FALCON 9
Launch site
Air Force Eastern Test Range (AFETR)
Object type
Payload
Rocket body
Debris
Shape & HBR
Box + 2 Pan, 13.1 m
Radar Cross Section
120.644 m², Large (>1 m²)

Expand to show TLE details & history
Last TLE update: 9 hours ago

TLE from 9 hours ago
0 HISPASAT 30W-6
1 43228U 18023A   26126.32762088 -.00000208  00000-0  00000+0 0  9996
2 43228   0.0499  49.9086 0006519 357.8497 264.3793  1.00270986 29988
Epoch: 2026-05-06T07:51Z
TLE epoch observation values (Epoch: 2026-05-06T07:51:46.444Z)
Latitude
-0.0328°
Longitude
-30.077°
Altitude
35,789.043 km
Speed
3.075 km/s
True Right ascension
20h 48m 13s
True Declination
0° 01' 58"
Sunlit
Object was in daylight at epoch
Visualization orbit readout
Latitude
Unknown
Longitude
Unknown
Altitude
Unknown
Speed
Unknown
Apparent Right ascension
Unknown
Apparent Declination
Unknown
Sunlit
N/A
Visualization observer readout
Local Sidereal Time
01:16:27
Azimuth
Unknown
Elevation
Unknown
Doppler factor
Unknown
Orbital elements
Apogee altitude
35,815.377 km
Perigee altitude
35,760.401 km
Semi-major axis
42,166.026 km
Eccentricity
0.00065
Inclination
0.0499°
RAAN
49.9086°
Arg. of periapsis
357.8497°
True anomaly
264.30496°
Mean anomaly
264.3793°
Eccentric anomaly
264.34213°
Mean motion
0.25067 °/min
Orbital period
1,436.16 mins
BSTAR
0
Loading maneuver chart data...
Computing Atmospheric mass density...
Loading historical data...
Loading historical data...
Loading historical data...
Loading historical data...
Loading historical data...
Loading historical data...
Loading historical data...
Other satellites on launch #23 in the year 2018 (2018-03-06 UTC)

Documentation

Showing up to 5 results
|